Date_Time,Julian_Date,Latitude,Longitude,Instrument_Depth,Water_Temperature
(yyyy-mm-dd hh:mn:ss UTC),(JD),(+ deg. North),(+ deg. East),(m),(deg. C)
1985-07-30 24:00:00 UTC,2446277.500000,25.8867,-84.3197,0100,18.3200
1985-07-31 00:20:00 UTC,2446277.513889,25.8867,-84.3197,0100,18.5020
1985-07-31 00:40:00 UTC,2446277.527778,25.8867,-84.3197,0100,18.4230
1985-07-31 01:00:00 UTC,2446277.541667,25.8867,-84.3197,0100,18.4990
1985-07-31 01:20:00 UTC,2446277.555556,25.8867,-84.3197,0100,18.4320
1985-07-31 01:40:00 UTC,2446277.569444,25.8867,-84.3197,0100,18.5020
1985-07-31 02:00:00 UTC,2446277.583333,25.8867,-84.3197,0100,18.4160
1985-07-31 02:20:00 UTC,2446277.597222,25.8867,-84.3197,0100,18.4820
1985-07-31 02:40:00 UTC,2446277.611111,25.8867,-84.3197,0100,18.4760
1985-07-31 03:00:00 UTC,2446277.625000,25.8867,-84.3197,0100,18.4410
1985-07-31 03:20:00 UTC,2446277.638889,25.8867,-84.3197,0100,18.3990
1985-07-31 03:40:00 UTC,2446277.652778,25.8867,-84.3197,0100,18.4380
1985-07-31 04:00:00 UTC,2446277.666667,25.8867,-84.3197,0100,18.4560
1985-07-31 04:20:00 UTC,2446277.680556,25.8867,-84.3197,0100,18.3890
1985-07-31 04:40:00 UTC,2446277.694444,25.8867,-84.3197,0100,18.3870
1985-07-31 05:00:00 UTC,2446277.708333,25.8867,-84.3197,0100,18.3420
1985-07-31 05:20:00 UTC,2446277.722222,25.8867,-84.3197,0100,18.4360
1985-07-31 05:40:00 UTC,2446277.736111,25.8867,-84.3197,0100,18.4770
1985-07-31 06:00:00 UTC,2446277.750000,25.8867,-84.3197,0100,18.4090
1985-07-31 06:20:00 UTC,2446277.763889,25.8867,-84.3197,0100,18.4390
1985-07-31 06:40:00 UTC,2446277.777778,25.8867,-84.3197,0100,18.5990
1985-07-31 07:00:00 UTC,2446277.791667,25.8867,-84.3197,0100,18.5080
1985-07-31 07:20:00 UTC,2446277.805556,25.8867,-84.3197,0100,18.5940
1985-07-31 07:40:00 UTC,2446277.819444,25.8867,-84.3197,0100,18.5540
1985-07-31 08:00:00 UTC,2446277.833333,25.8867,-84.3197,0100,18.3970
1985-07-31 08:20:00 UTC,2446277.847222,25.8867,-84.3197,0100,18.3350
1985-07-31 08:40:00 UTC,2446277.861111,25.8867,-84.3197,0100,18.2530
1985-07-31 09:00:00 UTC,2446277.875000,25.8867,-84.3197,0100,18.2500
1985-07-31 09:20:00 UTC,2446277.888889,25.8867,-84.3197,0100,18.2590
1985-07-31 09:40:00 UTC,2446277.902778,25.8867,-84.3197,0100,18.2650
1985-07-31 10:00:00 UTC,2446277.916667,25.8867,-84.3197,0100,18.3100
1985-07-31 10:20:00 UTC,2446277.930556,25.8867,-84.3197,0100,18.2600
1985-07-31 10:40:00 UTC,2446277.944444,25.8867,-84.3197,0100,18.2780
1985-07-31 11:00:00 UTC,2446277.958333,25.8867,-84.3197,0100,18.2000
1985-07-31 11:20:00 UTC,2446277.972222,25.8867,-84.3197,0100,18.1790
1985-07-31 11:40:00 UTC,2446277.986111,25.8867,-84.3197,0100,18.1450
1985-07-31 12:00:00 UTC,2446278.000000,25.8867,-84.3197,0100,18.1170
1985-07-31 12:20:00 UTC,2446278.013889,25.8867,-84.3197,0100,18.1540
1985-07-31 12:40:00 UTC,2446278.027778,25.8867,-84.3197,0100,18.2780
1985-07-31 13:00:00 UTC,2446278.041667,25.8867,-84.3197,0100,18.3480
1985-07-31 13:20:00 UTC,2446278.055556,25.8867,-84.3197,0100,18.3170
1985-07-31 13:40:00 UTC,2446278.069444,25.8867,-84.3197,0100,18.2810
1985-07-31 14:00:00 UTC,2446278.083333,25.8867,-84.3197,0100,18.3000
1985-07-31 14:20:00 UTC,2446278.097222,25.8867,-84.3197,0100,18.1750
1985-07-31 14:40:00 UTC,2446278.111111,25.8867,-84.3197,0100,18.2280
1985-07-31 15:00:00 UTC,2446278.125000,25.8867,-84.3197,0100,18.3270
1985-07-31 15:20:00 UTC,2446278.138889,25.8867,-84.3197,0100,18.2230
1985-07-31 15:40:00 UTC,2446278.152778,25.8867,-84.3197,0100,18.0680
1985-07-31 16:00:00 UTC,2446278.166667,25.8867,-84.3197,0100,17.9740
1985-07-31 16:20:00 UTC,2446278.180556,25.8867,-84.3197,0100,18.0310
1985-07-31 16:40:00 UTC,2446278.194444,25.8867,-84.3197,0100,17.9920
1985-07-31 17:00:00 UTC,2446278.208333,25.8867,-84.3197,0100,17.9630
1985-07-31 17:20:00 UTC,2446278.222222,25.8867,-84.3197,0100,17.9480
1985-07-31 17:40:00 UTC,2446278.236111,25.8867,-84.3197,0100,17.6780
1985-07-31 18:00:00 UTC,2446278.250000,25.8867,-84.3197,0100,17.7640
1985-07-31 18:20:00 UTC,2446278.263889,25.8867,-84.3197,0100,17.7660
1985-07-31 18:40:00 UTC,2446278.277778,25.8867,-84.3197,0100,17.9150
1985-07-31 19:00:00 UTC,2446278.291667,25.8867,-84.3197,0100,17.8960
1985-07-31 19:20:00 UTC,2446278.305556,25.8867,-84.3197,0100,17.9070
1985-07-31 19:40:00 UTC,2446278.319444,25.8867,-84.3197,0100,18.0090
1985-07-31 20:00:00 UTC,2446278.333333,25.8867,-84.3197,0100,17.8590
1985-07-31 20:20:00 UTC,2446278.347222,25.8867,-84.3197,0100,17.8870
1985-07-31 20:40:00 UTC,2446278.361111,25.8867,-84.3197,0100,17.7680
1985-07-31 21:00:00 UTC,2446278.375000,25.8867,-84.3197,0100,17.7790
1985-07-31 21:20:00 UTC,2446278.388889,25.8867,-84.3197,0100,17.8290
1985-07-31 21:40:00 UTC,2446278.402778,25.8867,-84.3197,0100,18.0190
1985-07-31 22:00:00 UTC,2446278.416667,25.8867,-84.3197,0100,18.0570
1985-07-31 22:20:00 UTC,2446278.430556,25.8867,-84.3197,0100,18.1870
1985-07-31 22:40:00 UTC,2446278.444444,25.8867,-84.3197,0100,18.1910
1985-07-31 23:00:00 UTC,2446278.458333,25.8867,-84.3197,0100,18.1470
1985-07-31 23:20:00 UTC,2446278.472222,25.8867,-84.3197,0100,18.2840
1985-07-31 23:40:00 UTC,2446278.486111,25.8867,-84.3197,0100,18.2770
1985-08-01 00:00:00 UTC,2446278.500000,25.8867,-84.3197,0100,18.2910
1985-08-01 00:20:00 UTC,2446278.513889,25.8867,-84.3197,0100,18.2900
1985-08-01 00:40:00 UTC,2446278.527778,25.8867,-84.3197,0100,18.2890
1985-08-01 01:00:00 UTC,2446278.541667,25.8867,-84.3197,0100,18.2950
1985-08-01 01:20:00 UTC,2446278.555556,25.8867,-84.3197,0100,18.3530
1985-08-01 01:40:00 UTC,2446278.569444,25.8867,-84.3197,0100,18.3990
1985-08-01 02:00:00 UTC,2446278.583333,25.8867,-84.3197,0100,18.4990
1985-08-01 02:20:00 UTC,2446278.597222,25.8867,-84.3197,0100,18.5730
1985-08-01 02:40:00 UTC,2446278.611111,25.8867,-84.3197,0100,18.5900
1985-08-01 03:00:00 UTC,2446278.625000,25.8867,-84.3197,0100,18.5860
1985-08-01 03:20:00 UTC,2446278.638889,25.8867,-84.3197,0100,18.5270
1985-08-01 03:40:00 UTC,2446278.652778,25.8867,-84.3197,0100,18.4730
1985-08-01 04:00:00 UTC,2446278.666667,25.8867,-84.3197,0100,18.4220
1985-08-01 04:20:00 UTC,2446278.680556,25.8867,-84.3197,0100,18.4330
1985-08-01 04:40:00 UTC,2446278.694444,25.8867,-84.3197,0100,18.5190
1985-08-01 05:00:00 UTC,2446278.708333,25.8867,-84.3197,0100,18.4950
1985-08-01 05:20:00 UTC,2446278.722222,25.8867,-84.3197,0100,18.4240
1985-08-01 05:40:00 UTC,2446278.736111,25.8867,-84.3197,0100,18.3060
1985-08-01 06:00:00 UTC,2446278.750000,25.8867,-84.3197,0100,18.2510
1985-08-01 06:20:00 UTC,2446278.763889,25.8867,-84.3197,0100,18.2280
1985-08-01 06:40:00 UTC,2446278.777778,25.8867,-84.3197,0100,18.2360
1985-08-01 07:00:00 UTC,2446278.791667,25.8867,-84.3197,0100,18.2980
1985-08-01 07:20:00 UTC,2446278.805556,25.8867,-84.3197,0100,18.2880
1985-08-01 07:40:00 UTC,2446278.819444,25.8867,-84.3197,0100,18.2460
1985-08-01 08:00:00 UTC,2446278.833333,25.8867,-84.3197,0100,18.2640
1985-08-01 08:20:00 UTC,2446278.847222,25.8867,-84.3197,0100,18.2800
1985-08-01 08:40:00 UTC,2446278.861111,25.8867,-84.3197,0100,18.2460
1985-08-01 09:00:00 UTC,2446278.875000,25.8867,-84.3197,0100,18.2510
1985-08-01 09:20:00 UTC,2446278.888889,25.8867,-84.3197,0100,18.2960
1985-08-01 09:40:00 UTC,2446278.902778,25.8867,-84.3197,0100,18.3940
1985-08-01 10:00:00 UTC,2446278.916667,25.8867,-84.3197,0100,18.3080
1985-08-01 10:20:00 UTC,2446278.930556,25.8867,-84.3197,0100,18.2900
1985-08-01 10:40:00 UTC,2446278.944444,25.8867,-84.3197,0100,18.3150
1985-08-01 11:00:00 UTC,2446278.958333,25.8867,-84.3197,0100,18.3150
1985-08-01 11:20:00 UTC,2446278.972222,25.8867,-84.3197,0100,18.2590
1985-08-01 11:40:00 UTC,2446278.986111,25.8867,-84.3197,0100,18.2850
1985-08-01 12:00:00 UTC,2446279.000000,25.8867,-84.3197,0100,18.2410
1985-08-01 12:20:00 UTC,2446279.013889,25.8867,-84.3197,0100,18.0980
1985-08-01 12:40:00 UTC,2446279.027778,25.8867,-84.3197,0100,18.1440
1985-08-01 13:00:00 UTC,2446279.041667,25.8867,-84.3197,0100,18.0480
1985-08-01 13:20:00 UTC,2446279.055556,25.8867,-84.3197,0100,17.9930
1985-08-01 13:40:00 UTC,2446279.069444,25.8867,-84.3197,0100,17.8970
1985-08-01 14:00:00 UTC,2446279.083333,25.8867,-84.3197,0100,17.9660
1985-08-01 14:20:00 UTC,2446279.097222,25.8867,-84.3197,0100,17.9290
1985-08-01 14:40:00 UTC,2446279.111111,25.8867,-84.3197,0100,17.8780
1985-08-01 15:00:00 UTC,2446279.125000,25.8867,-84.3197,0100,17.7850
1985-08-01 15:20:00 UTC,2446279.138889,25.8867,-84.3197,0100,17.8400
1985-08-01 15:40:00 UTC,2446279.152778,25.8867,-84.3197,0100,17.8060
1985-08-01 16:00:00 UTC,2446279.166667,25.8867,-84.3197,0100,17.8090
1985-08-01 16:20:00 UTC,2446279.180556,25.8867,-84.3197,0100,17.7890
1985-08-01 16:40:00 UTC,2446279.194444,25.8867,-84.3197,0100,17.7360
1985-08-01 17:00:00 UTC,2446279.208333,25.8867,-84.3197,0100,17.6040
1985-08-01 17:20:00 UTC,2446279.222222,25.8867,-84.3197,0100,17.5620
1985-08-01 17:40:00 UTC,2446279.236111,25.8867,-84.3197,0100,17.4490
1985-08-01 18:00:00 UTC,2446279.250000,25.8867,-84.3197,0100,17.5820
1985-08-01 18:20:00 UTC,2446279.263889,25.8867,-84.3197,0100,17.5750
1985-08-01 18:40:00 UTC,2446279.277778,25.8867,-84.3197,0100,17.6770
1985-08-01 19:00:00 UTC,2446279.291667,25.8867,-84.3197,0100,17.6400
1985-08-01 19:20:00 UTC,2446279.305556,25.8867,-84.3197,0100,17.6800
1985-08-01 19:40:00 UTC,2446279.319444,25.8867,-84.3197,0100,17.6840
1985-08-01 20:00:00 UTC,2446279.333333,25.8867,-84.3197,0100,17.7380
1985-08-01 20:20:00 UTC,2446279.347222,25.8867,-84.3197,0100,17.6700
1985-08-01 20:40:00 UTC,2446279.361111,25.8867,-84.3197,0100,17.3930
1985-08-01 21:00:00 UTC,2446279.375000,25.8867,-84.3197,0100,17.2640
1985-08-01 21:20:00 UTC,2446279.388889,25.8867,-84.3197,0100,17.2910
1985-08-01 21:40:00 UTC,2446279.402778,25.8867,-84.3197,0100,17.3710
1985-08-01 22:00:00 UTC,2446279.416667,25.8867,-84.3197,0100,17.5190
1985-08-01 22:20:00 UTC,2446279.430556,25.8867,-84.3197,0100,17.4500
1985-08-01 22:40:00 UTC,2446279.444444,25.8867,-84.3197,0100,17.6010
1985-08-01 23:00:00 UTC,2446279.458333,25.8867,-84.3197,0100,17.8130
1985-08-01 23:20:00 UTC,2446279.472222,25.8867,-84.3197,0100,17.8940
1985-08-01 23:40:00 UTC,2446279.486111,25.8867,-84.3197,0100,17.9360
1985-08-02 00:00:00 UTC,2446279.500000,25.8867,-84.3197,0100,17.9780
1985-08-02 00:20:00 UTC,2446279.513889,25.8867,-84.3197,0100,17.8860
1985-08-02 00:40:00 UTC,2446279.527778,25.8867,-84.3197,0100,17.8490
1985-08-02 01:00:00 UTC,2446279.541667,25.8867,-84.3197,0100,17.8800
1985-08-02 01:20:00 UTC,2446279.555556,25.8867,-84.3197,0100,17.9650
1985-08-02 01:40:00 UTC,2446279.569444,25.8867,-84.3197,0100,17.9980
1985-08-02 02:00:00 UTC,2446279.583333,25.8867,-84.3197,0100,17.9340
1985-08-02 02:20:00 UTC,2446279.597222,25.8867,-84.3197,0100,17.9090
1985-08-02 02:40:00 UTC,2446279.611111,25.8867,-84.3197,0100,18.0610
1985-08-02 03:00:00 UTC,2446279.625000,25.8867,-84.3197,0100,17.8550
1985-08-02 03:20:00 UTC,2446279.638889,25.8867,-84.3197,0100,18.0100
1985-08-02 03:40:00 UTC,2446279.652778,25.8867,-84.3197,0100,18.2060
1985-08-02 04:00:00 UTC,2446279.666667,25.8867,-84.3197,0100,18.3240
1985-08-02 04:20:00 UTC,2446279.680556,25.8867,-84.3197,0100,18.3090
1985-08-02 04:40:00 UTC,2446279.694444,25.8867,-84.3197,0100,18.3110
1985-08-02 05:00:00 UTC,2446279.708333,25.8867,-84.3197,0100,18.3060
1985-08-02 05:20:00 UTC,2446279.722222,25.8867,-84.3197,0100,18.1980
1985-08-02 05:40:00 UTC,2446279.736111,25.8867,-84.3197,0100,17.9830
1985-08-02 06:00:00 UTC,2446279.750000,25.8867,-84.3197,0100,18.0420
1985-08-02 06:20:00 UTC,2446279.763889,25.8867,-84.3197,0100,18.0920
1985-08-02 06:40:00 UTC,2446279.777778,25.8867,-84.3197,0100,18.0060
1985-08-02 07:00:00 UTC,2446279.791667,25.8867,-84.3197,0100,17.8320
1985-08-02 07:20:00 UTC,2446279.805556,25.8867,-84.3197,0100,17.8940
1985-08-02 07:40:00 UTC,2446279.819444,25.8867,-84.3197,0100,17.9560
1985-08-02 08:00:00 UTC,2446279.833333,25.8867,-84.3197,0100,17.9470
1985-08-02 08:20:00 UTC,2446279.847222,25.8867,-84.3197,0100,17.9300
1985-08-02 08:40:00 UTC,2446279.861111,25.8867,-84.3197,0100,17.9690
1985-08-02 09:00:00 UTC,2446279.875000,25.8867,-84.3197,0100,18.0430
1985-08-02 09:20:00 UTC,2446279.888889,25.8867,-84.3197,0100,18.0690
1985-08-02 09:40:00 UTC,2446279.902778,25.8867,-84.3197,0100,18.0400
1985-08-02 10:00:00 UTC,2446279.916667,25.8867,-84.3197,0100,18.0680
1985-08-02 10:20:00 UTC,2446279.930556,25.8867,-84.3197,0100,17.9740
1985-08-02 10:40:00 UTC,2446279.944444,25.8867,-84.3197,0100,17.8560
1985-08-02 11:00:00 UTC,2446279.958333,25.8867,-84.3197,0100,17.8070
1985-08-02 11:20:00 UTC,2446279.972222,25.8867,-84.3197,0100,17.8080
1985-08-02 11:40:00 UTC,2446279.986111,25.8867,-84.3197,0100,17.6750
1985-08-02 12:00:00 UTC,2446280.000000,25.8867,-84.3197,0100,17.5100
1985-08-02 12:20:00 UTC,2446280.013889,25.8867,-84.3197,0100,17.4740
1985-08-02 12:40:00 UTC,2446280.027778,25.8867,-84.3197,0100,17.3370
1985-08-02 13:00:00 UTC,2446280.041667,25.8867,-84.3197,0100,17.3350
1985-08-02 13:20:00 UTC,2446280.055556,25.8867,-84.3197,0100,17.3570
1985-08-02 13:40:00 UTC,2446280.069444,25.8867,-84.3197,0100,17.5920
1985-08-02 14:00:00 UTC,2446280.083333,25.8867,-84.3197,0100,17.6730
1985-08-02 14:20:00 UTC,2446280.097222,25.8867,-84.3197,0100,17.5900
1985-08-02 14:40:00 UTC,2446280.111111,25.8867,-84.3197,0100,17.6200
1985-08-02 15:00:00 UTC,2446280.125000,25.8867,-84.3197,0100,17.5580
1985-08-02 15:20:00 UTC,2446280.138889,25.8867,-84.3197,0100,17.5900
1985-08-02 15:40:00 UTC,2446280.152778,25.8867,-84.3197,0100,17.5140
1985-08-02 16:00:00 UTC,2446280.166667,25.8867,-84.3197,0100,17.4210
1985-08-02 16:20:00 UTC,2446280.180556,25.8867,-84.3197,0100,17.4280
1985-08-02 16:40:00 UTC,2446280.194444,25.8867,-84.3197,0100,17.3380
1985-08-02 17:00:00 UTC,2446280.208333,25.8867,-84.3197,0100,17.3100
1985-08-02 17:20:00 UTC,2446280.222222,25.8867,-84.3197,0100,17.3410
1985-08-02 17:40:00 UTC,2446280.236111,25.8867,-84.3197,0100,17.2970
1985-08-02 18:00:00 UTC,2446280.250000,25.8867,-84.3197,0100,17.1840
1985-08-02 18:20:00 UTC,2446280.263889,25.8867,-84.3197,0100,17.1710
1985-08-02 18:40:00 UTC,2446280.277778,25.8867,-84.3197,0100,17.1750
1985-08-02 19:00:00 UTC,2446280.291667,25.8867,-84.3197,0100,17.0980
1985-08-02 19:20:00 UTC,2446280.305556,25.8867,-84.3197,0100,17.1490
1985-08-02 19:40:00 UTC,2446280.319444,25.8867,-84.3197,0100,17.0970
1985-08-02 20:00:00 UTC,2446280.333333,25.8867,-84.3197,0100,17.2410
1985-08-02 20:20:00 UTC,2446280.347222,25.8867,-84.3197,0100,17.4860
1985-08-02 20:40:00 UTC,2446280.361111,25.8867,-84.3197,0100,17.4160
1985-08-02 21:00:00 UTC,2446280.375000,25.8867,-84.3197,0100,17.4320
1985-08-02 21:20:00 UTC,2446280.388889,25.8867,-84.3197,0100,17.4170
1985-08-02 21:40:00 UTC,2446280.402778,25.8867,-84.3197,0100,17.3440
1985-08-02 22:00:00 UTC,2446280.416667,25.8867,-84.3197,0100,17.3470
1985-08-02 22:20:00 UTC,2446280.430556,25.8867,-84.3197,0100,17.2740
1985-08-02 22:40:00 UTC,2446280.444444,25.8867,-84.3197,0100,17.1690
1985-08-02 23:00:00 UTC,2446280.458333,25.8867,-84.3197,0100,17.1460
1985-08-02 23:20:00 UTC,2446280.472222,25.8867,-84.3197,0100,17.1510
1985-08-02 23:40:00 UTC,2446280.486111,25.8867,-84.3197,0100,17.1850
1985-08-03 00:00:00 UTC,2446280.500000,25.8867,-84.3197,0100,17.2160
1985-08-03 00:20:00 UTC,2446280.513889,25.8867,-84.3197,0100,17.2530
1985-08-03 00:40:00 UTC,2446280.527778,25.8867,-84.3197,0100,17.3190
1985-08-03 01:00:00 UTC,2446280.541667,25.8867,-84.3197,0100,17.3870
1985-08-03 01:20:00 UTC,2446280.555556,25.8867,-84.3197,0100,17.4610
1985-08-03 01:40:00 UTC,2446280.569444,25.8867,-84.3197,0100,17.4250
1985-08-03 02:00:00 UTC,2446280.583333,25.8867,-84.3197,0100,17.4720
1985-08-03 02:20:00 UTC,2446280.597222,25.8867,-84.3197,0100,17.5280
1985-08-03 02:40:00 UTC,2446280.611111,25.8867,-84.3197,0100,17.4840
1985-08-03 03:00:00 UTC,2446280.625000,25.8867,-84.3197,0100,17.6710
1985-08-03 03:20:00 UTC,2446280.638889,25.8867,-84.3197,0100,17.7620
1985-08-03 03:40:00 UTC,2446280.652778,25.8867,-84.3197,0100,17.7490
1985-08-03 04:00:00 UTC,2446280.666667,25.8867,-84.3197,0100,17.8280
1985-08-03 04:20:00 UTC,2446280.680556,25.8867,-84.3197,0100,17.8870
1985-08-03 04:40:00 UTC,2446280.694444,25.8867,-84.3197,0100,17.7860
1985-08-03 05:00:00 UTC,2446280.708333,25.8867,-84.3197,0100,17.9160
1985-08-03 05:20:00 UTC,2446280.722222,25.8867,-84.3197,0100,17.9660
1985-08-03 05:40:00 UTC,2446280.736111,25.8867,-84.3197,0100,18.0810
1985-08-03 06:00:00 UTC,2446280.750000,25.8867,-84.3197,0100,18.0510
1985-08-03 06:20:00 UTC,2446280.763889,25.8867,-84.3197,0100,17.9190
1985-08-03 06:40:00 UTC,2446280.777778,25.8867,-84.3197,0100,17.7080
1985-08-03 07:00:00 UTC,2446280.791667,25.8867,-84.3197,0100,17.6190
1985-08-03 07:20:00 UTC,2446280.805556,25.8867,-84.3197,0100,17.4940
1985-08-03 07:40:00 UTC,2446280.819444,25.8867,-84.3197,0100,17.4220
1985-08-03 08:00:00 UTC,2446280.833333,25.8867,-84.3197,0100,17.3640
1985-08-03 08:20:00 UTC,2446280.847222,25.8867,-84.3197,0100,17.3670
1985-08-03 08:40:00 UTC,2446280.861111,25.8867,-84.3197,0100,17.3900
1985-08-03 09:00:00 UTC,2446280.875000,25.8867,-84.3197,0100,17.6040
1985-08-03 09:20:00 UTC,2446280.888889,25.8867,-84.3197,0100,17.5340
1985-08-03 09:40:00 UTC,2446280.902778,25.8867,-84.3197,0100,17.7360
1985-08-03 10:00:00 UTC,2446280.916667,25.8867,-84.3197,0100,17.7670
1985-08-03 10:20:00 UTC,2446280.930556,25.8867,-84.3197,0100,17.7230
1985-08-03 10:40:00 UTC,2446280.944444,25.8867,-84.3197,0100,17.5520
1985-08-03 11:00:00 UTC,2446280.958333,25.8867,-84.3197,0100,17.5360
1985-08-03 11:20:00 UTC,2446280.972222,25.8867,-84.3197,0100,17.4970
1985-08-03 11:40:00 UTC,2446280.986111,25.8867,-84.3197,0100,17.3820
1985-08-03 12:00:00 UTC,2446281.000000,25.8867,-84.3197,0100,17.3110
1985-08-03 12:20:00 UTC,2446281.013889,25.8867,-84.3197,0100,17.4360
1985-08-03 12:40:00 UTC,2446281.027778,25.8867,-84.3197,0100,17.4800
1985-08-03 13:00:00 UTC,2446281.041667,25.8867,-84.3197,0100,17.4410
1985-08-03 13:20:00 UTC,2446281.055556,25.8867,-84.3197,0100,17.3650
1985-08-03 13:40:00 UTC,2446281.069444,25.8867,-84.3197,0100,17.2660
1985-08-03 14:00:00 UTC,2446281.083333,25.8867,-84.3197,0100,17.1610
1985-08-03 14:20:00 UTC,2446281.097222,25.8867,-84.3197,0100,17.0990
1985-08-03 14:40:00 UTC,2446281.111111,25.8867,-84.3197,0100,17.0970
1985-08-03 15:00:00 UTC,2446281.125000,25.8867,-84.3197,0100,16.9900
1985-08-03 15:20:00 UTC,2446281.138889,25.8867,-84.3197,0100,16.8840
1985-08-03 15:40:00 UTC,2446281.152778,25.8867,-84.3197,0100,16.7980
1985-08-03 16:00:00 UTC,2446281.166667,25.8867,-84.3197,0100,16.6940
1985-08-03 16:20:00 UTC,2446281.180556,25.8867,-84.3197,0100,16.6360
1985-08-03 16:40:00 UTC,2446281.194444,25.8867,-84.3197,0100,16.5880
1985-08-03 17:00:00 UTC,2446281.208333,25.8867,-84.3197,0100,16.6300
1985-08-03 17:20:00 UTC,2446281.222222,25.8867,-84.3197,0100,16.7160
1985-08-03 17:40:00 UTC,2446281.236111,25.8867,-84.3197,0100,16.7960
1985-08-03 18:00:00 UTC,2446281.250000,25.8867,-84.3197,0100,16.7430
1985-08-03 18:20:00 UTC,2446281.263889,25.8867,-84.3197,0100,16.5920
1985-08-03 18:40:00 UTC,2446281.277778,25.8867,-84.3197,0100,16.5050
1985-08-03 19:00:00 UTC,2446281.291667,25.8867,-84.3197,0100,16.5150
1985-08-03 19:20:00 UTC,2446281.305556,25.8867,-84.3197,0100,16.5280
1985-08-03 19:40:00 UTC,2446281.319444,25.8867,-84.3197,0100,16.4530
1985-08-03 20:00:00 UTC,2446281.333333,25.8867,-84.3197,0100,16.4560
1985-08-03 20:20:00 UTC,2446281.347222,25.8867,-84.3197,0100,16.4200
1985-08-03 20:40:00 UTC,2446281.361111,25.8867,-84.3197,0100,16.4560
1985-08-03 21:00:00 UTC,2446281.375000,25.8867,-84.3197,0100,16.4810
1985-08-03 21:20:00 UTC,2446281.388889,25.8867,-84.3197,0100,16.5520
1985-08-03 21:40:00 UTC,2446281.402778,25.8867,-84.3197,0100,16.8990
1985-08-03 22:00:00 UTC,2446281.416667,25.8867,-84.3197,0100,17.0980
1985-08-03 22:20:00 UTC,2446281.430556,25.8867,-84.3197,0100,17.1220
1985-08-03 22:40:00 UTC,2446281.444444,25.8867,-84.3197,0100,17.1420
1985-08-03 23:00:00 UTC,2446281.458333,25.8867,-84.3197,0100,17.2280
1985-08-03 23:20:00 UTC,2446281.472222,25.8867,-84.3197,0100,17.4370
1985-08-03 23:40:00 UTC,2446281.486111,25.8867,-84.3197,0100,17.5150
1985-08-04 00:00:00 UTC,2446281.500000,25.8867,-84.3197,0100,17.7020
1985-08-04 00:20:00 UTC,2446281.513889,25.8867,-84.3197,0100,17.7010
1985-08-04 00:40:00 UTC,2446281.527778,25.8867,-84.3197,0100,17.7350
1985-08-04 01:00:00 UTC,2446281.541667,25.8867,-84.3197,0100,17.7540
1985-08-04 01:20:00 UTC,2446281.555556,25.8867,-84.3197,0100,17.7230
1985-08-04 01:40:00 UTC,2446281.569444,25.8867,-84.3197,0100,17.5800
1985-08-04 02:00:00 UTC,2446281.583333,25.8867,-84.3197,0100,17.6180
1985-08-04 02:20:00 UTC,2446281.597222,25.8867,-84.3197,0100,17.5580
1985-08-04 02:40:00 UTC,2446281.611111,25.8867,-84.3197,0100,17.5800
1985-08-04 03:00:00 UTC,2446281.625000,25.8867,-84.3197,0100,17.6970
1985-08-04 03:20:00 UTC,2446281.638889,25.8867,-84.3197,0100,17.7900
1985-08-04 03:40:00 UTC,2446281.652778,25.8867,-84.3197,0100,17.6450
1985-08-04 04:00:00 UTC,2446281.666667,25.8867,-84.3197,0100,17.5410
1985-08-04 04:20:00 UTC,2446281.680556,25.8867,-84.3197,0100,17.5470
1985-08-04 04:40:00 UTC,2446281.694444,25.8867,-84.3197,0100,17.7560
1985-08-04 05:00:00 UTC,2446281.708333,25.8867,-84.3197,0100,17.7940
1985-08-04 05:20:00 UTC,2446281.722222,25.8867,-84.3197,0100,17.7920
1985-08-04 05:40:00 UTC,2446281.736111,25.8867,-84.3197,0100,17.8580
1985-08-04 06:00:00 UTC,2446281.750000,25.8867,-84.3197,0100,17.8740
1985-08-04 06:20:00 UTC,2446281.763889,25.8867,-84.3197,0100,17.9050
1985-08-04 06:40:00 UTC,2446281.777778,25.8867,-84.3197,0100,17.9010
1985-08-04 07:00:00 UTC,2446281.791667,25.8867,-84.3197,0100,17.6320
1985-08-04 07:20:00 UTC,2446281.805556,25.8867,-84.3197,0100,17.5900
1985-08-04 07:40:00 UTC,2446281.819444,25.8867,-84.3197,0100,17.6600
1985-08-04 08:00:00 UTC,2446281.833333,25.8867,-84.3197,0100,17.6780
1985-08-04 08:20:00 UTC,2446281.847222,25.8867,-84.3197,0100,17.6970
1985-08-04 08:40:00 UTC,2446281.861111,25.8867,-84.3197,0100,17.5850
1985-08-04 09:00:00 UTC,2446281.875000,25.8867,-84.3197,0100,17.5540
1985-08-04 09:20:00 UTC,2446281.888889,25.8867,-84.3197,0100,17.5640
1985-08-04 09:40:00 UTC,2446281.902778,25.8867,-84.3197,0100,17.6430
1985-08-04 10:00:00 UTC,2446281.916667,25.8867,-84.3197,0100,17.5610
1985-08-04 10:20:00 UTC,2446281.930556,25.8867,-84.3197,0100,17.5710
1985-08-04 10:40:00 UTC,2446281.944444,25.8867,-84.3197,0100,17.5920
1985-08-04 11:00:00 UTC,2446281.958333,25.8867,-84.3197,0100,17.5630
1985-08-04 11:20:00 UTC,2446281.972222,25.8867,-84.3197,0100,17.4710
1985-08-04 11:40:00 UTC,2446281.986111,25.8867,-84.3197,0100,17.3030
1985-08-04 12:00:00 UTC,2446282.000000,25.8867,-84.3197,0100,17.2770
1985-08-04 12:20:00 UTC,2446282.013889,25.8867,-84.3197,0100,17.2810
1985-08-04 12:40:00 UTC,2446282.027778,25.8867,-84.3197,0100,17.2470
1985-08-04 13:00:00 UTC,2446282.041667,25.8867,-84.3197,0100,17.0980
1985-08-04 13:20:00 UTC,2446282.055556,25.8867,-84.3197,0100,17.0590
1985-08-04 13:40:00 UTC,2446282.069444,25.8867,-84.3197,0100,17.0730
1985-08-04 14:00:00 UTC,2446282.083333,25.8867,-84.3197,0100,17.0560
1985-08-04 14:20:00 UTC,2446282.097222,25.8867,-84.3197,0100,17.0270
1985-08-04 14:40:00 UTC,2446282.111111,25.8867,-84.3197,0100,17.0440
1985-08-04 15:00:00 UTC,2446282.125000,25.8867,-84.3197,0100,17.1980
1985-08-04 15:20:00 UTC,2446282.138889,25.8867,-84.3197,0100,17.1440
1985-08-04 15:40:00 UTC,2446282.152778,25.8867,-84.3197,0100,16.9890
1985-08-04 16:00:00 UTC,2446282.166667,25.8867,-84.3197,0100,16.9130
1985-08-04 16:20:00 UTC,2446282.180556,25.8867,-84.3197,0100,16.9300
1985-08-04 16:40:00 UTC,2446282.194444,25.8867,-84.3197,0100,16.8810
1985-08-04 17:00:00 UTC,2446282.208333,25.8867,-84.3197,0100,16.8090
1985-08-04 17:20:00 UTC,2446282.222222,25.8867,-84.3197,0100,16.7550
1985-08-04 17:40:00 UTC,2446282.236111,25.8867,-84.3197,0100,16.6630
1985-08-04 18:00:00 UTC,2446282.250000,25.8867,-84.3197,0100,16.6690
1985-08-04 18:20:00 UTC,2446282.263889,25.8867,-84.3197,0100,16.6500
1985-08-04 18:40:00 UTC,2446282.277778,25.8867,-84.3197,0100,16.6360